Satellite: AO-49
Catalog number: 27605
Epoch time:      05257.86620991
Element set:     839
Inclination:      064.5569 deg
RA of node:       222.6581 deg
Eccentricity:    0.0075146
Arg of perigee:   221.6737 deg
Mean anomaly:     137.8632 deg
Mean motion:   14.72129551 rev/day
Decay rate:       1.48e-06 rev/day^2
Epoch rev:           14705
Checksum:              332

Satellite: SO-50
Catalog number: 27607
Epoch time:      05257.91236839
Element set:    0819
Inclination:      064.5572 deg
RA of node:       228.6404 deg
Eccentricity:    0.0075613
Arg of perigee:   220.3552 deg
Mean anomaly:     139.1948 deg
Mean motion:   14.71024337 rev/day
Decay rate:       4.64e-06 rev/day^2
Epoch rev:           14693
Checksum:              315

Satellite: AO-51
Catalog number: 28375
Epoch time:      05257.73423265
Element set:     341
Inclination:      098.2085 deg
RA of node:       316.7077 deg
Eccentricity:    0.0084382
Arg of perigee:   321.3164 deg
Mean anomaly:     038.2000 deg
Mean motion:   14.40478003 rev/day
Decay rate:        4.1e-07 rev/day^2
Epoch rev:            6350
Checksum:              272

/EX
SB KEPS @ AMSAT  $ORB05258.W
Orbital Elements  05258.WEATHER

HR AMSAT ORBITAL ELEMENTS FOR WEATHER SATELLITES
FROM WA5QGD FORT WORTH,TX September 15, 2005
Send SUBSCRIBE KEPS/UNSUBSCRIBE KEPS to majordomo@amsat.org only
BID: ORB05258.W
TO ALL RADIO AMATEURS BT

Satellite: NOAA-10
Catalog number: 16969
Epoch time:      05257.78037824
Element set:    0884
Inclination:      098.7668 deg
RA of node:       263.7659 deg
Eccentricity:    0.0011713
Arg of perigee:   229.6734 deg
Mean anomaly:     130.3412 deg
Mean motion:   14.27268370 rev/day
Decay rate:       -1.8e-07 rev/day^2
Epoch rev:           98787
Checksum:              352

Satellite: NOAA-11
Catalog number: 19531
Epoch time:      05257.82952318
Element set:    0756
Inclination:      098.8436 deg
RA of node:       344.0550 deg
Eccentricity:    0.0012238
Arg of perigee:   056.4057 deg
Mean anomaly:     303.8284 deg
Mean motion:   14.14766588 rev/day
Decay rate:      -1.72e-06 rev/day^2
Epoch rev:           87560
Checksum:              323

Satellite: NOAA-12
Catalog number: 21263
Epoch time:      05257.81446549
Element set:    0243
Inclination:      098.7095 deg
RA of node:       247.5820 deg
Eccentricity:    0.0013005
Arg of perigee:   164.9762 deg
Mean anomaly:     195.1801 deg
Mean motion:   14.25466223 rev/day
Decay rate:       -8.2e-07 rev/day^2
Epoch rev:           74501
Checksum:              295

Satellite: MET-3/5
Catalog number: 21655
Epoch time:      05257.89881217
Element set:    0919
Inclination:      082.5510 deg
RA of node:       095.2947 deg
Eccentricity:    0.0013597
Arg of perigee:   014.0114 deg
Mean anomaly:     346.1403 deg
Mean motion:   13.17002332 rev/day
Decay rate:        5.1e-07 rev/day^2
Epoch rev:           67712
Checksum:              285

Satellite: MET-2/21
Catalog number: 22782
Epoch time:      05258.73801048
Element set:     302
Inclination:      082.5505 deg
RA of node:       189.1536 deg
Eccentricity:    0.0021138
Arg of perigee:   227.6192 deg
Mean anomaly:     132.3178 deg
Mean motion:   13.83594472 rev/day
Decay rate:       1.22e-06 rev/day^2
Epoch rev:           60809
Checksum:              293

Satellite: OKEAN-4
Catalog number: 23317
Epoch time:      05258.81314920
Element set:     733
Inclination:      082.5417 deg
RA of node:       172.8897 deg
Eccentricity:    0.0021451
Arg of perigee:   194.4082 deg
Mean anomaly:     165.6508 deg
Mean motion:   14.82225654 rev/day
Decay rate:       3.19e-06 rev/day^2
Epoch rev:           58933
Checksum:              312

Satellite: NOAA-14
Catalog number: 23455
Epoch time:      05257.82735196
Element set:    0765
Inclination:      099.0809 deg
RA of node:       307.5852 deg
Eccentricity:    0.0010178
Arg of perigee:   107.8479 deg
Mean anomaly:     252.3767 deg
Mean motion:   14.13597019 rev/day
Decay rate:       3.10e-06 rev/day^2
Epoch rev:           55216
Checksum:              325

Satellite: SICH-1
Catalog number: 23657
Epoch time:      05257.87947749
Element set:    0538
Inclination:      082.5292 deg
RA of node:       314.6162 deg
Eccentricity:    0.0024038
Arg of perigee:   184.0297 deg
Mean anomaly:     176.0727 deg
Mean motion:   14.81231682 rev/day
Decay rate:       9.94e-06 rev/day^2
Epoch rev:           54123
Checksum:              326

Satellite: NOAA-15
Catalog number: 25338
Epoch time:      05257.76483570
Element set:    0187
Inclination:      098.5148 deg
RA of node:       263.3813 deg
Eccentricity:    0.0011628
Arg of perigee:   096.8525 deg
Mean anomaly:     263.3985 deg
Mean motion:   14.24537586 rev/day
Decay rate:        3.0e-07 rev/day^2
Epoch rev:           38150
Checksum:              328

Satellite: RESURS
Catalog number: 25394
Epoch time:      05257.93501548
Element set:    0204
Inclination:      098.5336 deg
RA of node:       324.5640 deg
Eccentricity:    0.0000655
Arg of perigee:   219.4396 deg
Mean anomaly:     140.6734 deg
Mean motion:   14.24079105 rev/day
Decay rate:       -1.3e-07 rev/day^2
Epoch rev:           37322
Checksum:              281

Satellite: FENGYUN1
Catalog number: 25730
Epoch time:      05257.71715448
Element set:    0518
Inclination:      098.6119 deg
RA of node:       255.9397 deg
Eccentricity:    0.0013871
Arg of perigee:   202.4535 deg
Mean anomaly:     157.6047 deg
Mean motion:   14.11797776 rev/day
Decay rate:      -1.70e-06 rev/day^2
Epoch rev:           32714
Checksum:              318

